Time,TemperatureF,DewpointF,PressureIn,WindDirection,WindDirectionDegrees,WindSpeedMPH,WindSpeedGustMPH,Humidity,HourlyPrecipIn,Conditions,Clouds,dailyrainin,SoftwareType,DateUTC
2013-03-03 00:02:00,25.0,18.0,-100.00,NW,305,4.0,7.0,75,0.00,,,-99.99,,2013-03-03 05:02:00,
2013-03-03 00:12:00,25.0,18.0,-100.00,WNW,290,3.0,7.0,75,0.00,,,-99.99,,2013-03-03 05:12:00,
2013-03-03 00:22:00,25.0,18.0,-100.00,WNW,300,4.0,6.0,75,0.00,,,-99.99,,2013-03-03 05:22:00,
2013-03-03 00:32:00,25.0,18.0,-100.00,WNW,300,6.0,7.0,75,0.00,,,-99.99,,2013-03-03 05:32:00,
2013-03-03 00:42:00,24.0,18.0,-100.00,WNW,290,4.0,6.0,75,0.00,,,-99.99,,2013-03-03 05:42:00,
2013-03-03 00:52:00,25.0,18.0,-100.00,WNW,285,4.0,6.0,75,0.00,,,-99.99,,2013-03-03 05:52:00,
2013-03-03 01:02:00,25.0,18.0,-100.00,West,275,3.0,6.0,75,0.00,,,-99.99,,2013-03-03 06:02:00,
2013-03-03 01:11:00,25.0,18.0,-100.00,West,275,3.0,6.0,75,0.00,,,-99.99,,2013-03-03 06:11:00,
2013-03-03 01:21:00,25.0,18.0,-100.00,WNW,285,2.0,9.0,74,0.00,,,-99.99,,2013-03-03 06:21:00,
2013-03-03 01:32:00,25.0,18.0,-100.00,WNW,285,2.0,9.0,74,0.00,,,-99.99,,2013-03-03 06:32:00,
2013-03-03 01:42:00,25.0,17.0,-100.00,WNW,285,5.0,9.0,72,0.00,,,-99.99,,2013-03-03 06:42:00,
2013-03-03 01:52:00,25.0,17.0,-100.00,West,275,6.0,9.0,71,0.00,,,-99.99,,2013-03-03 06:52:00,
2013-03-03 02:01:00,24.0,17.0,-100.00,West,265,6.0,11.0,71,0.00,,,-99.99,,2013-03-03 07:01:00,
2013-03-03 02:11:00,24.0,17.0,-100.00,WSW,250,4.0,9.0,72,0.00,,,-99.99,,2013-03-03 07:11:00,
2013-03-03 02:21:00,24.0,17.0,-100.00,West,280,6.0,11.0,72,0.00,,,-99.99,,2013-03-03 07:21:00,
2013-03-03 02:32:00,24.0,17.0,-100.00,West,275,6.0,12.0,72,0.00,,,-99.99,,2013-03-03 07:32:00,
2013-03-03 02:42:00,24.0,16.0,-100.00,West,275,6.0,11.0,72,0.00,,,-99.99,,2013-03-03 07:42:00,
2013-03-03 02:51:00,24.0,16.0,-100.00,West,270,7.0,11.0,71,0.00,,,-99.99,,2013-03-03 07:51:00,
2013-03-03 03:01:00,24.0,16.0,-100.00,West,270,6.0,9.0,71,0.00,,,-99.99,,2013-03-03 08:01:00,
2013-03-03 03:11:00,24.0,15.0,-100.00,West,280,7.0,12.0,69,0.00,,,-99.99,,2013-03-03 08:11:00,
2013-03-03 03:21:00,24.0,16.0,-100.00,WNW,290,6.0,12.0,70,0.00,,,-99.99,,2013-03-03 08:21:00,
2013-03-03 03:32:00,24.0,16.0,-100.00,WNW,285,7.0,11.0,71,0.00,,,-99.99,,2013-03-03 08:32:00,
2013-03-03 03:42:00,24.0,16.0,-100.00,West,265,5.0,10.0,71,0.00,,,-99.99,,2013-03-03 08:42:00,
2013-03-03 03:53:00,24.0,16.0,-100.00,West,265,6.0,12.0,71,0.00,,,-99.99,,2013-03-03 08:53:00,
2013-03-03 04:02:00,24.0,16.0,-100.00,WSW,255,3.0,11.0,72,0.00,,,-99.99,,2013-03-03 09:02:00,
2013-03-03 04:12:00,23.0,16.0,-100.00,West,280,7.0,9.0,72,0.00,,,-99.99,,2013-03-03 09:12:00,
2013-03-03 04:21:00,23.0,16.0,-100.00,WNW,285,7.0,11.0,72,0.00,,,-99.99,,2013-03-03 09:21:00,
2013-03-03 04:32:00,23.0,16.0,-100.00,West,265,4.0,9.0,73,0.00,,,-99.99,,2013-03-03 09:32:00,
2013-03-03 04:42:00,23.0,16.0,-100.00,West,280,6.0,11.0,72,0.00,,,-99.99,,2013-03-03 09:42:00,
2013-03-03 04:51:00,24.0,16.0,-100.00,West,280,3.0,10.0,73,0.00,,,-99.99,,2013-03-03 09:51:00,
2013-03-03 05:01:00,23.0,16.0,-100.00,WSW,255,4.0,9.0,73,0.00,,,-99.99,,2013-03-03 10:01:00,
2013-03-03 05:12:00,23.0,16.0,-100.00,West,260,5.0,9.0,73,0.00,,,-99.99,,2013-03-03 10:12:00,
2013-03-03 05:21:00,23.0,16.0,-100.00,West,260,5.0,11.0,74,0.00,,,-99.99,,2013-03-03 10:21:00,
2013-03-03 05:32:00,23.0,16.0,-100.00,WNW,285,4.0,9.0,73,0.00,,,-99.99,,2013-03-03 10:32:00,
2013-03-03 05:42:00,23.0,16.0,-100.00,WNW,285,4.0,9.0,73,0.00,,,-99.99,,2013-03-03 10:42:00,
2013-03-03 05:52:00,23.0,16.0,-100.00,West,275,5.0,9.0,74,0.00,,,-99.99,,2013-03-03 10:52:00,
2013-03-03 06:01:00,23.0,16.0,-100.00,West,280,6.0,9.0,74,0.55,,,-99.99,,2013-03-03 11:01:00,
2013-03-03 06:11:00,23.0,16.0,-100.00,West,260,4.0,10.0,73,0.00,,,-99.99,,2013-03-03 11:11:00,
2013-03-03 06:22:00,23.0,16.0,-100.00,WNW,285,4.0,9.0,73,0.00,,,-99.99,,2013-03-03 11:22:00,
2013-03-03 06:32:00,23.0,16.0,-100.00,West,280,2.0,7.0,74,0.00,,,-99.99,,2013-03-03 11:32:00,
2013-03-03 06:42:00,23.0,17.0,-100.00,WNW,290,2.0,6.0,74,0.00,,,-99.99,,2013-03-03 11:42:00,
2013-03-03 06:52:00,23.0,17.0,-100.00,West,265,4.0,6.0,74,0.00,,,-99.99,,2013-03-03 11:52:00,
2013-03-03 07:02:00,23.0,16.0,-100.00,West,270,5.0,9.0,73,0.00,,,-99.99,,2013-03-03 12:02:00,
2013-03-03 07:11:00,23.0,16.0,-100.00,WNW,285,3.0,9.0,72,0.00,,,-99.99,,2013-03-03 12:11:00,
2013-03-03 07:21:00,23.0,16.0,-100.00,West,265,5.0,12.0,72,0.55,,,-99.99,,2013-03-03 12:21:00,
2013-03-03 07:32:00,23.0,16.0,-100.00,West,260,4.0,9.0,73,0.55,,,-99.99,,2013-03-03 12:32:00,
2013-03-03 07:43:00,23.0,16.0,-100.00,West,275,4.0,10.0,75,0.00,,,-99.99,,2013-03-03 12:43:00,
2013-03-03 07:52:00,23.0,17.0,-100.00,West,280,5.0,9.0,76,0.00,,,-99.99,,2013-03-03 12:52:00,
2013-03-03 08:02:00,23.0,17.0,-100.00,WNW,285,5.0,9.0,77,0.00,,,-99.99,,2013-03-03 13:02:00,
2013-03-03 08:11:00,23.0,17.0,-100.00,WSW,255,6.0,10.0,76,0.00,,,-99.99,,2013-03-03 13:11:00,
2013-03-03 08:22:00,23.0,17.0,-100.00,WSW,255,6.0,10.0,76,0.00,,,-99.99,,2013-03-03 13:22:00,
2013-03-03 08:32:00,23.0,15.0,-100.00,West,270,6.0,11.0,71,0.00,,,-99.99,,2013-03-03 13:32:00,
2013-03-03 08:42:00,23.0,15.0,-100.00,WSW,255,4.0,11.0,70,0.00,,,-99.99,,2013-03-03 13:42:00,
2013-03-03 08:52:00,24.0,15.0,-100.00,WNW,295,6.0,12.0,69,0.00,,,-99.99,,2013-03-03 13:52:00,
2013-03-03 09:02:00,24.0,14.0,-100.00,WNW,295,9.0,16.0,66,0.00,,,-99.99,,2013-03-03 14:02:00,
2013-03-03 09:11:00,24.0,14.0,-100.00,WNW,285,6.0,13.0,66,0.00,,,-99.99,,2013-03-03 14:11:00,
2013-03-03 09:21:00,24.0,13.0,-100.00,West,275,7.0,13.0,64,0.00,,,-99.99,,2013-03-03 14:21:00,
2013-03-03 09:32:00,24.0,13.0,-100.00,West,275,7.0,13.0,63,0.00,,,-99.99,,2013-03-03 14:32:00,
2013-03-03 09:42:00,25.0,13.0,-100.00,West,260,9.0,16.0,60,0.00,,,-99.99,,2013-03-03 14:42:00,
2013-03-03 09:52:00,25.0,13.0,-100.00,West,265,6.0,13.0,61,0.00,,,-99.99,,2013-03-03 14:52:00,
2013-03-03 10:02:00,24.0,13.0,-100.00,WNW,300,6.0,15.0,62,0.00,,,-99.99,,2013-03-03 15:02:00,
2013-03-03 10:11:00,26.0,14.0,-100.00,WSW,255,4.0,15.0,60,0.00,,,-99.99,,2013-03-03 15:11:00,
2013-03-03 10:22:00,24.0,13.0,-100.00,West,280,7.0,14.0,61,0.00,,,-99.99,,2013-03-03 15:22:00,
2013-03-03 10:32:00,25.0,13.0,-100.00,WSW,250,7.0,14.0,59,0.00,,,-99.99,,2013-03-03 15:32:00,
2013-03-03 10:42:00,25.0,13.0,-100.00,West,280,4.0,14.0,60,0.00,,,-99.99,,2013-03-03 15:42:00,
2013-03-03 10:52:00,25.0,13.0,-100.00,West,260,7.0,12.0,61,0.00,,,-99.99,,2013-03-03 15:52:00,
2013-03-03 11:02:00,25.0,13.0,-100.00,West,280,6.0,12.0,61,0.00,,,-99.99,,2013-03-03 16:02:00,
2013-03-03 11:12:00,24.0,13.0,-100.00,West,275,7.0,15.0,61,0.00,,,-99.99,,2013-03-03 16:12:00,
2013-03-03 11:22:00,24.0,13.0,-100.00,West,270,7.0,12.0,61,0.00,,,-99.99,,2013-03-03 16:22:00,
2013-03-03 11:32:00,25.0,13.0,-100.00,WNW,285,4.0,11.0,60,0.00,,,-99.99,,2013-03-03 16:32:00,
2013-03-03 11:42:00,25.0,13.0,-100.00,West,270,4.0,9.0,60,0.00,,,-99.99,,2013-03-03 16:42:00,
2013-03-03 11:52:00,25.0,13.0,-100.00,NW,305,4.0,9.0,58,0.00,,,-99.99,,2013-03-03 16:52:00,
2013-03-03 12:01:00,25.0,13.0,-100.00,West,265,7.0,10.0,59,0.00,,,-99.99,,2013-03-03 17:01:00,
2013-03-03 12:11:00,25.0,13.0,-100.00,WNW,290,7.0,11.0,61,0.00,,,-99.99,,2013-03-03 17:11:00,
2013-03-03 12:22:00,26.0,14.0,-100.00,WSW,240,4.0,13.0,60,0.00,,,-99.99,,2013-03-03 17:22:00,
2013-03-03 12:32:00,26.0,14.0,-100.00,SW,220,4.0,9.0,60,0.00,,,-99.99,,2013-03-03 17:32:00,
2013-03-03 12:42:00,26.0,13.0,-100.00,West,265,4.0,9.0,58,0.00,,,-99.99,,2013-03-03 17:42:00,
2013-03-03 12:52:00,26.0,14.0,-100.00,West,275,7.0,12.0,59,0.00,,,-99.99,,2013-03-03 17:52:00,
2013-03-03 13:02:00,27.0,14.0,-100.00,WNW,285,4.0,12.0,56,0.00,,,-99.99,,2013-03-03 18:02:00,
2013-03-03 13:11:00,27.0,14.0,-100.00,WNW,285,4.0,12.0,56,0.00,,,-99.99,,2013-03-03 18:11:00,
2013-03-03 13:21:00,27.0,14.0,-100.00,WNW,285,6.0,13.0,58,0.00,,,-99.99,,2013-03-03 18:21:00,
2013-03-03 13:32:00,31.0,16.0,-100.00,SW,220,2.0,7.0,54,0.00,,,-99.99,,2013-03-03 18:32:00,
2013-03-03 13:42:00,29.0,15.0,-100.00,WNW,290,6.0,10.0,55,0.00,,,-99.99,,2013-03-03 18:42:00,
2013-03-03 13:52:00,28.0,15.0,-100.00,WNW,295,7.0,11.0,58,0.00,,,-99.99,,2013-03-03 18:52:00,
2013-03-03 14:02:00,27.0,14.0,-100.00,NW,310,6.0,12.0,57,0.00,,,-99.99,,2013-03-03 19:02:00,
2013-03-03 14:11:00,29.0,15.0,-100.00,WSW,255,4.0,11.0,55,0.00,,,-99.99,,2013-03-03 19:11:00,
2013-03-03 14:22:00,31.0,16.0,-100.00,WNW,290,4.0,9.0,53,0.00,,,-99.99,,2013-03-03 19:22:00,
2013-03-03 14:32:00,30.0,16.0,-100.00,NW,305,7.0,9.0,55,0.00,,,-99.99,,2013-03-03 19:32:00,
2013-03-03 14:42:00,29.0,15.0,-100.00,WNW,300,6.0,11.0,56,0.00,,,-99.99,,2013-03-03 19:42:00,
2013-03-03 14:52:00,29.0,14.0,-100.00,WNW,290,7.0,12.0,52,0.00,,,-99.99,,2013-03-03 19:52:00,
2013-03-03 15:01:00,29.0,15.0,-100.00,WNW,290,3.0,11.0,55,0.00,,,-99.99,,2013-03-03 20:01:00,
2013-03-03 15:11:00,31.0,14.0,-100.00,West,275,6.0,12.0,48,0.00,,,-99.99,,2013-03-03 20:11:00,
2013-03-03 15:21:00,33.0,16.0,-100.00,SW,230,4.0,11.0,49,0.00,,,-99.99,,2013-03-03 20:21:00,
2013-03-03 15:32:00,31.0,14.0,-100.00,South,180,6.0,11.0,48,0.00,,,-99.99,,2013-03-03 20:32:00,
2013-03-03 15:42:00,30.0,14.0,-100.00,SW,225,6.0,12.0,51,0.00,,,-99.99,,2013-03-03 20:42:00,
2013-03-03 15:52:00,30.0,15.0,-100.00,WSW,245,4.0,11.0,52,0.00,,,-99.99,,2013-03-03 20:52:00,
2013-03-03 16:02:00,30.0,13.0,-100.00,WSW,240,4.0,12.0,49,0.00,,,-99.99,,2013-03-03 21:02:00,
2013-03-03 16:12:00,31.0,15.0,-100.00,SW,235,6.0,10.0,49,0.00,,,-99.99,,2013-03-03 21:12:00,
2013-03-03 16:22:00,32.0,13.0,-100.00,SW,235,4.0,12.0,44,0.00,,,-99.99,,2013-03-03 21:22:00,
2013-03-03 16:32:00,31.0,12.0,-100.00,West,265,9.0,14.0,43,0.00,,,-99.99,,2013-03-03 21:32:00,
2013-03-03 16:42:00,31.0,13.0,-100.00,WSW,255,9.0,16.0,47,0.00,,,-99.99,,2013-03-03 21:42:00,
2013-03-03 16:52:00,31.0,13.0,-100.00,WSW,245,7.0,14.0,46,0.00,,,-99.99,,2013-03-03 21:52:00,
2013-03-03 17:02:00,31.0,13.0,-100.00,West,260,4.0,13.0,46,0.00,,,-99.99,,2013-03-03 22:02:00,
2013-03-03 17:11:00,30.0,13.0,-100.00,SW,235,6.0,12.0,47,0.00,,,-99.99,,2013-03-03 22:11:00,
2013-03-03 17:22:00,31.0,12.0,-100.00,WSW,240,5.0,14.0,45,0.00,,,-99.99,,2013-03-03 22:22:00,
2013-03-03 17:32:00,31.0,12.0,-100.00,SSW,210,7.0,12.0,45,0.00,,,-99.99,,2013-03-03 22:32:00,
2013-03-03 17:42:00,30.0,13.0,-100.00,West,275,6.0,12.0,48,0.00,,,-99.99,,2013-03-03 22:42:00,
2013-03-03 17:52:00,30.0,13.0,-100.00,West,270,4.0,12.0,49,0.00,,,-99.99,,2013-03-03 22:52:00,
2013-03-03 18:01:00,29.0,13.0,-100.00,WSW,250,4.0,11.0,49,0.00,,,-99.99,,2013-03-03 23:01:00,
2013-03-03 18:11:00,29.0,13.0,-100.00,West,270,4.0,10.0,50,0.00,,,-99.99,,2013-03-03 23:11:00,
2013-03-03 18:21:00,29.0,13.0,-100.00,West,270,4.0,12.0,50,0.00,,,-99.99,,2013-03-03 23:21:00,
2013-03-03 18:32:00,29.0,13.0,-100.00,WSW,245,4.0,9.0,52,0.00,,,-99.99,,2013-03-03 23:32:00,
2013-03-03 18:42:00,28.0,14.0,-100.00,West,260,3.0,6.0,53,0.00,,,-99.99,,2013-03-03 23:42:00,
2013-03-03 18:52:00,28.0,13.0,-100.00,West,260,4.0,6.0,54,0.00,,,-99.99,,2013-03-03 23:52:00,
2013-03-03 19:02:00,28.0,13.0,-100.00,West,260,4.0,6.0,54,0.00,,,-99.99,,2013-03-04 00:02:00,
2013-03-03 19:11:00,28.0,13.0,-100.00,West,270,3.0,7.0,54,0.00,,,-99.99,,2013-03-04 00:11:00,
2013-03-03 19:21:00,28.0,13.0,-100.00,West,270,3.0,7.0,54,0.00,,,-99.99,,2013-03-04 00:21:00,
2013-03-03 19:32:00,27.0,14.0,-100.00,West,280,1.0,4.0,58,0.00,,,-99.99,,2013-03-04 00:32:00,
2013-03-03 19:42:00,27.0,14.0,-100.00,West,280,1.0,4.0,58,0.00,,,-99.99,,2013-03-04 00:42:00,
2013-03-03 19:52:00,27.0,14.0,-100.00,West,280,1.0,4.0,58,0.00,,,-99.99,,2013-03-04 00:52:00,
2013-03-03 20:01:00,27.0,15.0,-100.00,West,270,1.0,4.0,60,0.00,,,-99.99,,2013-03-04 01:01:00,
2013-03-03 20:12:00,26.0,15.0,-100.00,West,270,1.0,2.0,61,0.00,,,-99.99,,2013-03-04 01:12:00,
2013-03-03 20:22:00,26.0,15.0,-100.00,West,270,1.0,2.0,61,0.00,,,-99.99,,2013-03-04 01:22:00,
2013-03-03 20:32:00,26.0,15.0,-100.00,WSW,250,1.0,2.0,62,0.00,,,-99.99,,2013-03-04 01:32:00,
2013-03-03 20:42:00,25.0,15.0,-100.00,WSW,245,0.0,2.0,63,0.00,,,-99.99,,2013-03-04 01:42:00,
2013-03-03 20:52:00,25.0,15.0,-100.00,WSW,245,0.0,1.0,65,0.00,,,-99.99,,2013-03-04 01:52:00,
2013-03-03 21:01:00,25.0,15.0,-100.00,WSW,245,1.0,1.0,66,0.00,,,-99.99,,2013-03-04 02:01:00,
2013-03-03 21:11:00,25.0,15.0,-100.00,West,260,0.0,1.0,66,0.00,,,-99.99,,2013-03-04 02:11:00,
2013-03-03 21:22:00,24.0,15.0,-100.00,West,260,0.0,0.0,68,0.00,,,-99.99,,2013-03-04 02:22:00,
2013-03-03 21:32:00,25.0,16.0,-100.00,WSW,250,0.0,1.0,67,0.00,,,-99.99,,2013-03-04 02:32:00,
2013-03-03 21:42:00,26.0,16.0,-100.00,SSW,200,0.0,1.0,66,0.00,,,-99.99,,2013-03-04 02:42:00,
2013-03-03 21:52:00,26.0,17.0,-100.00,SSW,195,0.0,1.0,68,0.00,,,-99.99,,2013-03-04 02:52:00,
2013-03-03 22:02:00,26.0,18.0,-100.00,SSW,195,0.0,1.0,70,0.00,,,-99.99,,2013-03-04 03:02:00,
2013-03-03 22:11:00,26.0,17.0,-100.00,SSW,195,0.0,0.0,70,0.00,,,-99.99,,2013-03-04 03:11:00,
2013-03-03 22:22:00,26.0,17.0,-100.00,SSW,195,0.0,0.0,69,0.00,,,-99.99,,2013-03-04 03:22:00,
2013-03-03 22:32:00,26.0,18.0,-100.00,South,190,0.0,1.0,71,0.00,,,-99.99,,2013-03-04 03:32:00,
2013-03-03 22:42:00,26.0,18.0,-100.00,South,190,0.0,1.0,72,0.00,,,-99.99,,2013-03-04 03:42:00,
2013-03-03 22:52:00,26.0,18.0,-100.00,South,175,0.0,1.0,72,0.00,,,-99.99,,2013-03-04 03:52:00,
2013-03-03 23:01:00,25.0,18.0,-100.00,SSW,195,0.0,2.0,73,0.00,,,-99.99,,2013-03-04 04:01:00,
2013-03-03 23:11:00,25.0,18.0,-100.00,South,175,0.0,1.0,73,0.00,,,-99.99,,2013-03-04 04:11:00,
2013-03-03 23:22:00,25.0,18.0,-100.00,South,180,0.0,3.0,73,0.00,,,-99.99,,2013-03-04 04:22:00,
2013-03-03 23:32:00,24.0,17.0,-100.00,SW,220,0.0,2.0,73,0.00,,,-99.99,,2013-03-04 04:32:00,
2013-03-03 23:42:00,24.0,17.0,-100.00,WSW,245,1.0,3.0,73,0.00,,,-99.99,,2013-03-04 04:42:00,
2013-03-03 23:52:00,25.0,17.0,-100.00,West,260,3.0,6.0,71,0.00,,,-99.99,,2013-03-04 04:52:00,